SCP
0 0 0 0 0 0 0 0 0 0 0 0 0 0 0 0 0 0 0 0 0 0 0 0 0 0 -0 -0 -0 -0 -0 -0 -0 0 0 0 0 0 0 -0 -0 -0 -0
0 0 0 0 0 0 0 0 0 0 0 0 0 0 0 0 0 0 0 0 0 0 0 0 0 0 0 0 0 0 0 0 0 0 0 0 0 0 0 0 0 0 0
0 0 0 0 0 0 0 0 0 0 0 0 0 0 0 0 0 0 0 0 0 0 0 0 0 0 0 0 0 0 0 0 0 0 0 0 0 0 0 0 0 0 0
0 0 0 0 0 0 0 0 0 0 0 0 0 0 0 0 0 0 0 0 0 0 0 0 0 0 0 0 0 0 0 0 0 0 0 0 0 0 0 0 0 0 0
0 0 0 0 0 0 0 0 0 0 0 0 0 0 0 0 0 0 0 0 0 0 0 0 0 0 0 0 0 0 0 0 0 0 0 0 0 0 0 0 0 0 0
0 0 0 0 0 0 0 0 0 0 0 0 0 0 0 0 0 0 0 0 0 0 0 0 0 0 0 0 0 0 0 0 0 0 0 0 0 0 0 0 0 0 0
0 0 0 0 0 0 0 0 0 0 0 0 0 0 0 0 0 0 0 0 0 0 0 0 0 0 0 0 0 0 0 0 0 0 0 0 0 0 0 0 0 0 0
0 0 0 0 0 0 0 0 0 0 0 0 0 0 0 0 0 0 0 0 0 0 0 0 0 0 0 0 0 0 0 0 0 0 0 0 0 0 0 0 0 0 0
0 0 0 0 0 0 0 0 0 0 0 0 0 0 0 0 0 0 0 0 0 0 0 0 0 0 0 0 0 0 0 0 0 0 0 0 0 0 0 0 0 0 0
0 0 0 0 0 0 0 0 0 0 0 0 0 0 0 0 0 0 0 0 0 0 0 0 0 0 0 0 0 0 0 0 0 0 0 0 0 0 0 0 0 0 0
0 0 0 0 0 0 0 0 0 0 0 0 0 0 0 0 0 0 0 0 0 0 0 0 0 0 0 0 0 0 0 0 0 0 0 0 0 0 0 0 0 0 0
0 0 0 0 0 0 0 0 0 0 0 0 0 0 0 0 0 0 0 0 0 0 0 0 0 0 0 0 0 0 0 0 0 0 0 0 0 0 0 0 0 0 0
0 0 0 0 0 0 0 0 0 0 0 0 0 0 0 0 0 0 0 0 0 0 0 0 0 0 0 0 0 0 0 0 0 0 0 0 0 0 0 0 0 0 0
0 0 0 0 0 0 0 0 0 0 0 0 0 0 0 0 0 0 0 0 0 0 0 0 0 0 0 0 0 0 0 0 0 0 0 0 0 0 0 0 0 0 0
0 0 0 0 0 0 0 0 0 0 0 0 0 0 0 0 0 0 0 0 0 0 0 0 0 0 0 0 0 0 0 0 0 0 0 0 0 0 0 0 0 0 0
0 0 0 0 0 0 0 0 0 0 0 0 0 0 0 0 0 0 0 0 0 0 0 0 0 0 0 0 0 0 0 0 0 0 0 0 0 0 0 0 0 0 0
0 0 0 0 0 0 0 0 0 0 0 0 0 0 0 0 0 0 0 0 0 0 0 0 0 0 0 0 0 0 0 0 0 0 0 0 0 0 0 0 0 0 0
0 0 0 0 0 0 0 0 0 0 0 0 0 0 0 0 0 0 0 0 0 0 0 0 0 0 0 0 0 0 0 0 0 0 0 0 0 0 0 0 0 0 0
0 0 0 0 0 0 0 0 0 0 0 0 0 0 0 0 0 0 0 0 0 0 0 0 0 0 0 0 0 0 0 0 0 0 0 0 0 0 0 0 0 0 0
0 0 0 0 0 0 0 0 0 0 0 0 0 0 0 0 0 0 0 0 0 0 0 0 0 0 0 0 0 0 0 0 0 0 0 0 0 0 0 0 0 0 0
0 0 0 0 0 0 0 0 0 0 0 0 0 0 0 0 0 0 0 0 0 0 0 0 0 0 0 0 0 0 0 0 0 0 0 0 0 0 0 0 0 0 0
0 0 0 0 0 0 0 0 0 0 0 0 0 0 0 0 0 0 0 0 0 0 0 0 0 0 0 0 0 0 0 0 0 0 0 0 0 0 0 0 0 0 0
0 0 0 0 0 0 0 0 0 0 0 0 0 0 0 0 0 0 0 0 0 0 0 0 0 0 0 0 0 0 0 0 0 0 0 0 0 0 0 0 0 0 0
0 0 0 0 0 0 0 0 0 0 0 0 0 0 0 0 0 0 0 0 0 0 0 0 0 0 0 0 0 0 0 0 0 0 0 0 0 0 0 0 0 0 0
0 0 0 0 0 0 0 0 0 0 0 0 0 0 0 0 0 0 0 0 0 0 0 0 0 0 0 0 0 0 0 0 0 0 0 0 0 0 0 0 0 0 0
0 0 0 0 0 0 0 0 0 0 0 0 0 0 0 0 0 0 0 0 0 0 0 0 0 0 0 0 0 0 0 0 0 0 0 0 0 0 0 0 0 0 0
Wind_Speed_500mb
33 25 20 33 48 58 56 52 39 34 32 21 21 20 24 29 33 34 35 33 34 35 34 35 38 39 39 40 40 41 42 43 43 42 40 38 35 32 28 24 23 19 16
27 21 31 43 47 46 47 48 44 33 30 23 20 20 21 23 26 27 30 31 30 32 32 32 33 35 38 38 39 41 42 43 43 41 40 38 35 32 28 26 21 16 16
24 26 35 43 44 43 55 41 35 35 35 31 18 16 17 20 23 26 25 24 24 27 25 27 29 31 33 34 37 38 39 40 42 42 41 40 38 36 33 28 24 20 14
28 28 34 39 39 47 49 39 40 42 35 27 20 14 15 17 20 20 20 20 18 18 19 21 22 23 25 28 29 31 33 37 39 41 42 42 40 39 36 32 28 24 19
34 29 26 27 30 48 51 45 40 37 36 26 18 15 12 15 14 13 14 13 12 11 10 12 14 15 17 19 22 25 27 30 33 35 37 38 39 38 37 35 31 26 23
40 31 28 27 30 47 51 44 43 34 30 27 22 17 14 8 5 5 6 5 5 4 3 3 4 6 7 10 14 18 22 25 28 31 34 36 37 37 36 33 32 33 30
39 37 35 33 37 50 47 45 44 39 40 35 30 25 21 14 8 7 8 5 3 4 5 6 6 4 3 4 8 14 19 22 25 27 30 32 34 37 39 39 35 30 27
47 42 39 39 43 50 48 47 42 46 41 37 36 36 26 20 21 20 18 15 11 12 12 11 11 10 9 9 12 17 21 24 26 27 28 30 34 37 40 43 40 37 33
41 40 37 38 44 51 53 50 46 49 49 42 35 21 15 14 28 29 28 23 19 18 18 18 16 15 14 14 18 22 24 30 32 31 29 31 36 39 41 43 45 40 34
43 42 41 41 43 51 53 50 49 48 48 47 43 32 18 19 13 12 24 27 23 22 24 25 23 19 19 20 22 23 28 35 35 33 34 37 41 44 43 41 39 37 33
44 42 41 45 49 50 50 51 51 47 48 43 34 34 24 16 12 10 9 18 23 29 25 27 29 28 27 27 25 27 33 38 34 36 36 42 46 45 45 44 39 34 32
49 45 46 51 51 49 51 54 56 56 47 31 33 37 25 12 7 11 11 13 13 18 29 29 30 31 30 27 27 31 35 36 39 44 50 53 53 53 53 52 39 36 35
40 49 57 49 50 47 53 56 59 57 49 39 40 29 19 18 25 28 28 25 20 16 16 24 27 27 28 28 28 27 29 32 40 48 55 54 53 53 53 49 40 39 40
54 56 59 63 52 55 56 61 59 44 42 49 45 34 41 47 50 34 32 29 26 23 20 22 25 32 34 28 26 25 37 49 46 49 52 57 61 59 61 56 45 43 43
22 25 31 45 59 58 60 62 50 42 45 58 56 61 50 38 34 31 28 24 21 15 14 17 23 27 36 41 51 59 53 58 49 40 43 50 58 64 70 47 41 43 43
22 22 23 26 36 53 64 67 66 59 54 50 50 39 35 29 22 18 14 13 27 32 36 34 35 43 47 47 37 42 39 36 39 45 51 57 62 56 47 41 42 42 44
20 19 20 21 25 26 29 36 38 34 29 27 28 28 23 18 18 23 28 32 23 22 26 32 37 39 38 38 40 41 43 45 48 46 48 53 61 41 38 40 44 43 46
21 20 22 23 22 21 21 19 18 20 23 26 28 26 25 25 28 25 19 19 24 31 35 34 36 37 37 39 42 42 43 44 44 45 54 57 29 36 43 47 47 47 49
30 29 27 24 21 19 19 22 25 28 28 29 24 18 18 17 18 21 23 25 29 29 28 30 35 41 44 42 42 43 43 47 53 62 68 60 46 47 50 45 44 47 41
29 31 26 24 23 21 18 19 18 19 21 20 20 20 21 24 26 26 27 29 27 29 33 38 43 47 52 49 49 50 54 55 61 59 55 50 51 48 50 45 36 34 37
28 27 27 25 22 19 19 19 19 19 21 23 24 24 24 25 23 25 29 28 27 31 37 41 43 45 45 44 44 52 53 50 54 56 56 51 49 49 46 33 33 34 33
22 19 18 17 18 19 18 20 22 26 27 28 29 28 32 31 32 31 33 36 37 35 39 45 48 48 51 52 51 50 51 52 57 49 49 48 49 46 36 32 36 37 38
16 15 14 13 12 10 12 13 16 19 22 23 23 26 29 29 30 29 30 31 32 33 33 34 42 44 45 37 41 42 44 41 44 47 50 51 46 43 34 39 40 40 38
14 9 6 6 6 7 9 7 10 16 18 20 22 24 26 24 22 28 31 31 24 18 17 22 29 32 30 28 39 40 47 48 51 53 47 52 46 51 46 43 35 39 42
5 5 6 6 4 4 6 3 5 9 13 17 19 23 27 27 23 10 15 16 20 21 23 29 32 29 31 35 42 47 48 51 57 54 49 44 48 38 42 42 45 35 38
5 6 8 7 5 7 13 15 8 4 9 13 14 15 16 10 3 6 18 17 26 29 25 29 34 40 43 45 45 43 40 38 38 39 13 20 40 42 40 36 14 17 21
Wind_Direction_500mb
167 165 167 157 151 151 147 146 152 153 145 135 109 103 122 118 116 115 112 108 104 100 95 88 85 83 81 77 74 70 66 63 58 54 51 50 49 49 46 43 47 54 70
172 182 167 163 161 156 154 153 154 154 154 148 126 113 114 124 120 118 115 112 105 98 94 91 87 83 78 74 72 68 65 62 60 56 50 45 41 39 39 38 38 36 33
180 169 162 164 166 157 155 159 164 160 158 153 147 125 110 127 126 120 116 110 105 101 96 88 80 75 74 72 67 63 60 56 53 51 47 42 38 32 26 21 19 20 13
191 183 168 166 164 162 161 159 158 160 161 162 160 145 127 126 133 132 130 122 114 102 97 88 84 78 74 70 64 59 54 49 44 41 38 35 30 26 22 17 9 359 349
197 199 182 171 171 169 170 165 163 172 168 171 168 151 141 131 123 140 145 139 131 118 105 94 87 79 73 67 56 48 43 41 37 33 31 26 22 18 13 8 1 356 344
195 194 187 191 191 178 178 178 183 180 181 182 173 162 154 145 111 116 149 160 174 154 142 106 97 75 73 62 41 30 24 23 22 19 17 14 10 7 4 0 354 344 337
196 192 199 205 199 183 184 184 184 185 173 174 176 163 169 186 207 242 242 239 230 245 271 284 283 284 294 0 3 360 359 1 3 1 1 360 357 354 350 347 344 339 329
194 201 210 210 199 188 188 192 195 178 180 181 177 167 174 195 213 225 236 242 267 286 281 286 284 285 282 309 326 331 336 341 342 340 342 344 344 343 339 336 334 330 324
202 211 215 216 203 198 198 200 199 191 184 183 193 180 176 206 210 222 227 238 257 284 273 276 283 288 293 304 313 320 325 328 325 324 322 330 332 331 329 326 324 321 315
203 212 214 212 210 207 208 206 197 196 195 185 187 210 222 184 175 194 222 234 250 266 273 279 279 287 286 297 305 314 311 316 314 314 317 322 326 325 320 316 311 309 310
200 205 209 211 210 213 214 210 196 197 198 192 207 217 198 188 195 203 210 235 261 258 254 252 263 273 272 285 292 296 305 307 305 305 308 313 314 319 317 310 305 303 303
194 205 214 214 215 215 211 204 201 198 196 198 210 202 201 217 236 265 261 266 276 256 250 251 255 250 257 271 284 298 301 304 303 306 309 309 312 317 318 315 307 304 300
222 202 204 209 211 209 211 206 200 199 211 217 201 200 217 260 259 290 269 266 267 251 238 243 236 239 254 262 280 289 292 292 293 301 303 302 307 309 314 312 303 297 292
235 228 228 213 211 206 204 202 205 219 233 198 206 223 274 274 263 266 252 256 253 252 243 237 246 251 258 262 272 279 282 281 288 288 287 292 294 300 310 309 301 297 289
212 227 224 219 214 217 206 214 216 220 226 232 226 244 271 255 257 254 257 259 258 240 247 257 256 266 269 274 279 280 282 285 281 276 284 292 298 302 301 301 296 293 291
146 166 178 197 213 219 230 239 236 242 251 245 260 254 246 247 245 255 259 270 282 286 277 278 268 274 284 290 281 276 286 282 282 288 294 296 297 300 300 299 295 289 287
148 145 164 172 188 197 213 226 234 237 228 223 226 229 233 238 249 257 269 275 273 261 265 268 280 284 286 289 294 294 292 294 297 303 301 302 297 288 287 290 296 294 289
156 155 157 157 156 157 162 173 189 204 211 212 211 211 225 237 248 253 248 255 263 270 277 282 285 284 282 285 290 288 291 293 290 291 296 306 290 285 289 293 295 288 282
138 139 137 144 153 166 185 190 199 201 205 214 218 209 209 224 247 257 261 268 275 278 283 284 285 285 289 291 290 287 285 282 282 288 294 297 287 285 292 296 291 289 290
130 135 143 154 158 157 160 166 170 172 177 186 198 214 235 246 249 259 276 280 280 282 282 281 284 288 293 294 295 299 296 295 296 297 294 292 289 288 287 297 284 288 289
126 133 145 145 149 159 165 177 193 210 220 227 232 238 247 254 259 273 277 277 275 277 284 287 293 296 297 298 302 303 303 305 303 302 302 298 297 292 286 276 269 281 284
144 153 156 176 188 198 203 217 227 234 238 239 244 250 251 254 259 263 268 271 275 286 290 293 292 292 292 295 299 300 298 301 304 313 311 302 303 301 299 287 282 279 263
163 179 184 194 207 217 235 238 239 241 244 248 248 251 256 260 263 267 270 279 280 281 286 296 294 293 296 300 302 305 307 306 309 312 309 304 302 299 305 287 286 274 273
155 161 176 211 228 236 252 245 238 239 243 248 251 256 260 263 268 273 272 278 291 305 308 295 300 302 303 306 304 303 300 302 300 300 308 295 301 303 307 292 295 273 263
161 168 187 196 239 256 263 208 279 255 251 253 254 259 266 267 269 267 282 296 304 313 296 293 291 289 298 284 282 291 293 296 300 302 298 297 294 302 303 302 299 282 255
217 205 210 200 226 278 302 322 334 245 234 242 249 254 261 260 220 286 284 293 310 308 313 308 301 301 296 291 289 290 293 293 304 302 317 299 301 304 305 314 323 300 244
Wind_Speed_850mb
33 25 20 33 48 58 56 52 39 34 32 21 21 20 24 29 33 34 35 33 34 35 34 35 38 39 39 40 40 41 42 43 43 42 40 38 35 32 28 24 23 19 16
27 21 31 43 47 46 47 48 44 33 30 23 20 20 21 23 26 27 30 31 30 32 32 32 33 35 38 38 39 41 42 43 43 41 40 38 35 32 28 26 21 16 16
24 26 35 43 44 43 55 41 35 35 35 31 18 16 17 20 23 26 25 24 24 27 25 27 29 31 33 34 37 38 39 40 42 42 41 40 38 36 33 28 24 20 14
28 28 34 39 39 47 49 39 40 42 35 27 20 14 15 17 20 20 20 20 18 18 19 21 22 23 25 28 29 31 33 37 39 41 42 42 40 39 36 32 28 24 19
34 29 26 27 30 48 51 45 40 37 36 26 18 15 12 15 14 13 14 13 12 11 10 12 14 15 17 19 22 25 27 30 33 35 37 38 39 38 37 35 31 26 23
40 31 28 27 30 47 51 44 43 34 30 27 22 17 14 8 5 5 6 5 5 4 3 3 4 6 7 10 14 18 22 25 28 31 34 36 37 37 36 33 32 33 30
39 37 35 33 37 50 47 45 44 39 40 35 30 25 21 14 8 7 8 5 3 4 5 6 6 4 3 4 8 14 19 22 25 27 30 32 34 37 39 39 35 30 27
47 42 39 39 43 50 48 47 42 46 41 37 36 36 26 20 21 20 18 15 11 12 12 11 11 10 9 9 12 17 21 24 26 27 28 30 34 37 40 43 40 37 33
41 40 37 38 44 51 53 50 46 49 49 42 35 21 15 14 28 29 28 23 19 18 18 18 16 15 14 14 18 22 24 30 32 31 29 31 36 39 41 43 45 40 34
43 42 41 41 43 51 53 50 49 48 48 47 43 32 18 19 13 12 24 27 23 22 24 25 23 19 19 20 22 23 28 35 35 33 34 37 41 44 43 41 39 37 33
44 42 41 45 49 50 50 51 51 47 48 43 34 34 24 16 12 10 9 18 23 29 25 27 29 28 27 27 25 27 33 38 34 36 36 42 46 45 45 44 39 34 32
49 45 46 51 51 49 51 54 56 56 47 31 33 37 25 12 7 11 11 13 13 18 29 29 30 31 30 27 27 31 35 36 39 44 50 53 53 53 53 52 39 36 35
40 49 57 49 50 47 53 56 59 57 49 39 40 29 19 18 25 28 28 25 20 16 16 24 27 27 28 28 28 27 29 32 40 48 55 54 53 53 53 49 40 39 40
54 56 59 63 52 55 56 61 59 44 42 49 45 34 41 47 50 34 32 29 26 23 20 22 25 32 34 28 26 25 37 49 46 49 52 57 61 59 61 56 45 43 43
22 25 31 45 59 58 60 62 50 42 45 58 56 61 50 38 34 31 28 24 21 15 14 17 23 27 36 41 51 59 53 58 49 40 43 50 58 64 70 47 41 43 43
22 22 23 26 36 53 64 67 66 59 54 50 50 39 35 29 22 18 14 13 27 32 36 34 35 43 47 47 37 42 39 36 39 45 51 57 62 56 47 41 42 42 44
20 19 20 21 25 26 29 36 38 34 29 27 28 28 23 18 18 23 28 32 23 22 26 32 37 39 38 38 40 41 43 45 48 46 48 53 61 41 38 40 44 43 46
21 20 22 23 22 21 21 19 18 20 23 26 28 26 25 25 28 25 19 19 24 31 35 34 36 37 37 39 42 42 43 44 44 45 54 57 29 36 43 47 47 47 49
30 29 27 24 21 19 19 22 25 28 28 29 24 18 18 17 18 21 23 25 29 29 28 30 35 41 44 42 42 43 43 47 53 62 68 60 46 47 50 45 44 47 41
29 31 26 24 23 21 18 19 18 19 21 20 20 20 21 24 26 26 27 29 27 29 33 38 43 47 52 49 49 50 54 55 61 59 55 50 51 48 50 45 36 34 37
28 27 27 25 22 19 19 19 19 19 21 23 24 24 24 25 23 25 29 28 27 31 37 41 43 45 45 44 44 52 53 50 54 56 56 51 49 49 46 33 33 34 33
22 19 18 17 18 19 18 20 22 26 27 28 29 28 32 31 32 31 33 36 37 35 39 45 48 48 51 52 51 50 51 52 57 49 49 48 49 46 36 32 36 37 38
16 15 14 13 12 10 12 13 16 19 22 23 23 26 29 29 30 29 30 31 32 33 33 34 42 44 45 37 41 42 44 41 44 47 50 51 46 43 34 39 40 40 38
14 9 6 6 6 7 9 7 10 16 18 20 22 24 26 24 22 28 31 31 24 18 17 22 29 32 30 28 39 40 47 48 51 53 47 52 46 51 46 43 35 39 42
5 5 6 6 4 4 6 3 5 9 13 17 19 23 27 27 23 10 15 16 20 21 23 29 32 29 31 35 42 47 48 51 57 54 49 44 48 38 42 42 45 35 38
5 6 8 7 5 7 13 15 8 4 9 13 14 15 16 10 3 6 18 17 26 29 25 29 34 40 43 45 45 43 40 38 38 39 13 20 40 42 40 36 14 17 21
Wind_Direction_850mb
167 165 167 157 151 151 147 146 152 153 145 135 109 103 122 118 116 115 112 108 104 100 95 88 85 83 81 77 74 70 66 63 58 54 51 50 49 49 46 43 47 54 70
172 182 167 163 161 156 154 153 154 154 154 148 126 113 114 124 120 118 115 112 105 98 94 91 87 83 78 74 72 68 65 62 60 56 50 45 41 39 39 38 38 36 33
180 169 162 164 166 157 155 159 164 160 158 153 147 125 110 127 126 120 116 110 105 101 96 88 80 75 74 72 67 63 60 56 53 51 47 42 38 32 26 21 19 20 13
191 183 168 166 164 162 161 159 158 160 161 162 160 145 127 126 133 132 130 122 114 102 97 88 84 78 74 70 64 59 54 49 44 41 38 35 30 26 22 17 9 359 349
197 199 182 171 171 169 170 165 163 172 168 171 168 151 141 131 123 140 145 139 131 118 105 94 87 79 73 67 56 48 43 41 37 33 31 26 22 18 13 8 1 356 344
195 194 187 191 191 178 178 178 183 180 181 182 173 162 154 145 111 116 149 160 174 154 142 106 97 75 73 62 41 30 24 23 22 19 17 14 10 7 4 0 354 344 337
196 192 199 205 199 183 184 184 184 185 173 174 176 163 169 186 207 242 242 239 230 245 271 284 283 284 294 0 3 360 359 1 3 1 1 360 357 354 350 347 344 339 329
194 201 210 210 199 188 188 192 195 178 180 181 177 167 174 195 213 225 236 242 267 286 281 286 284 285 282 309 326 331 336 341 342 340 342 344 344 343 339 336 334 330 324
202 211 215 216 203 198 198 200 199 191 184 183 193 180 176 206 210 222 227 238 257 284 273 276 283 288 293 304 313 320 325 328 325 324 322 330 332 331 329 326 324 321 315
203 212 214 212 210 207 208 206 197 196 195 185 187 210 222 184 175 194 222 234 250 266 273 279 279 287 286 297 305 314 311 316 314 314 317 322 326 325 320 316 311 309 310
200 205 209 211 210 213 214 210 196 197 198 192 207 217 198 188 195 203 210 235 261 258 254 252 263 273 272 285 292 296 305 307 305 305 308 313 314 319 317 310 305 303 303
194 205 214 214 215 215 211 204 201 198 196 198 210 202 201 217 236 265 261 266 276 256 250 251 255 250 257 271 284 298 301 304 303 306 309 309 312 317 318 315 307 304 300
222 202 204 209 211 209 211 206 200 199 211 217 201 200 217 260 259 290 269 266 267 251 238 243 236 239 254 262 280 289 292 292 293 301 303 302 307 309 314 312 303 297 292
235 228 228 213 211 206 204 202 205 219 233 198 206 223 274 274 263 266 252 256 253 252 243 237 246 251 258 262 272 279 282 281 288 288 287 292 294 300 310 309 301 297 289
212 227 224 219 214 217 206 214 216 220 226 232 226 244 271 255 257 254 257 259 258 240 247 257 256 266 269 274 279 280 282 285 281 276 284 292 298 302 301 301 296 293 291
146 166 178 197 213 219 230 239 236 242 251 245 260 254 246 247 245 255 259 270 282 286 277 278 268 274 284 290 281 276 286 282 282 288 294 296 297 300 300 299 295 289 287
148 145 164 172 188 197 213 226 234 237 228 223 226 229 233 238 249 257 269 275 273 261 265 268 280 284 286 289 294 294 292 294 297 303 301 302 297 288 287 290 296 294 289
156 155 157 157 156 157 162 173 189 204 211 212 211 211 225 237 248 253 248 255 263 270 277 282 285 284 282 285 290 288 291 293 290 291 296 306 290 285 289 293 295 288 282
138 139 137 144 153 166 185 190 199 201 205 214 218 209 209 224 247 257 261 268 275 278 283 284 285 285 289 291 290 287 285 282 282 288 294 297 287 285 292 296 291 289 290
130 135 143 154 158 157 160 166 170 172 177 186 198 214 235 246 249 259 276 280 280 282 282 281 284 288 293 294 295 299 296 295 296 297 294 292 289 288 287 297 284 288 289
126 133 145 145 149 159 165 177 193 210 220 227 232 238 247 254 259 273 277 277 275 277 284 287 293 296 297 298 302 303 303 305 303 302 302 298 297 292 286 276 269 281 284
144 153 156 176 188 198 203 217 227 234 238 239 244 250 251 254 259 263 268 271 275 286 290 293 292 292 292 295 299 300 298 301 304 313 311 302 303 301 299 287 282 279 263
163 179 184 194 207 217 235 238 239 241 244 248 248 251 256 260 263 267 270 279 280 281 286 296 294 293 296 300 302 305 307 306 309 312 309 304 302 299 305 287 286 274 273
155 161 176 211 228 236 252 245 238 239 243 248 251 256 260 263 268 273 272 278 291 305 308 295 300 302 303 306 304 303 300 302 300 300 308 295 301 303 307 292 295 273 263
161 168 187 196 239 256 263 208 279 255 251 253 254 259 266 267 269 267 282 296 304 313 296 293 291 289 298 284 282 291 293 296 300 302 298 297 294 302 303 302 299 282 255
217 205 210 200 226 278 302 322 334 245 234 242 249 254 261 260 220 286 284 293 310 308 313 308 301 301 296 291 289 290 293 293 304 302 317 299 301 304 305 314 323 300 244